QPF
0.00 0.00 0.00 0.00 0.00 0.00 0.00 0.00 0.01 0.01 0.02 0.01 0.00 0.00 0.00 0.00 0.00 0.00 0.00 0.00 0.00 0.00 0.00 0.00 0.00 0.00 0.00 0.00 0.00 0.00 0.00 0.00 0.00 0.00 0.01 0.01 0.03 0.03 0.03 0.03 0.04 0.08 0.13 0.13
0.00 0.00 0.00 0.00 0.00 0.00 0.00 0.00 0.00 0.00 0.00 0.00 0.00 0.00 0.00 0.00 0.00 0.00 0.00 0.00 0.00 0.00 0.00 0.00 0.00 0.00 0.00 0.00 0.00 0.00 0.00 0.01 0.01 0.01 0.01 0.01 0.01 0.01 0.01 0.01 0.02 0.05 0.09 0.12
0.00 0.00 0.01 0.04 0.01 0.00 0.00 0.00 0.00 0.00 0.00 0.00 0.00 0.00 0.00 0.00 0.00 0.00 0.00 0.00 0.00 0.00 0.00 0.00 0.00 0.00 0.00 0.00 0.00 0.00 0.00 0.00 0.00 0.01 0.01 0.01 0.01 0.00 0.00 0.01 0.01 0.02 0.05 0.10
0.00 0.00 0.03 0.04 0.00 0.00 0.00 0.00 0.00 0.00 0.00 0.00 0.00 0.00 0.00 0.00 0.00 0.00 0.00 0.00 0.00 0.00 0.00 0.00 0.00 0.00 0.00 0.00 0.00 0.00 0.00 0.00 0.00 0.00 0.00 0.00 0.00 0.01 0.01 0.01 0.01 0.01 0.02 0.06
0.00 0.00 0.02 0.01 0.00 0.00 0.00 0.00 0.00 0.00 0.00 0.00 0.00 0.00 0.00 0.00 0.00 0.00 0.00 0.00 0.00 0.00 0.00 0.00 0.00 0.00 0.00 0.00 0.00 0.00 0.00 0.00 0.00 0.00 0.00 0.00 0.00 0.01 0.02 0.02 0.02 0.01 0.01 0.03
0.00 0.00 0.01 0.01 0.00 0.00 0.00 0.00 0.00 0.00 0.00 0.00 0.00 0.00 0.00 0.00 0.00 0.00 0.00 0.00 0.00 0.00 0.00 0.00 0.00 0.00 0.00 0.00 0.00 0.00 0.00 0.00 0.00 0.01 0.01 0.01 0.01 0.02 0.02 0.03 0.02 0.01 0.01 0.02
0.00 0.00 0.00 0.00 0.00 0.00 0.00 0.00 0.00 0.00 0.00 0.00 0.00 0.00 0.00 0.00 0.00 0.00 0.00 0.00 0.00 0.00 0.00 0.00 0.00 0.01 0.01 0.02 0.02 0.01 0.01 0.01 0.01 0.02 0.03 0.03 0.03 0.03 0.03 0.03 0.03 0.03 0.03 0.04
0.00 0.00 0.00 0.00 0.00 0.00 0.00 0.00 0.00 0.00 0.00 0.00 0.00 0.00 0.00 0.00 0.00 0.00 0.00 0.00 0.00 0.00 0.00 0.00 0.01 0.02 0.03 0.03 0.03 0.02 0.02 0.02 0.02 0.02 0.02 0.02 0.04 0.05 0.06 0.06 0.05 0.04 0.04 0.05
0.00 0.00 0.00 0.00 0.00 0.00 0.00 0.00 0.00 0.00 0.00 0.00 0.00 0.00 0.00 0.00 0.00 0.00 0.00 0.00 0.00 0.00 0.00 0.00 0.01 0.03 0.03 0.02 0.02 0.02 0.03 0.03 0.03 0.04 0.04 0.05 0.06 0.07 0.08 0.08 0.05 0.03 0.03 0.08
0.00 0.00 0.00 0.00 0.00 0.00 0.00 0.00 0.00 0.00 0.00 0.00 0.00 0.00 0.00 0.00 0.00 0.00 0.00 0.00 0.00 0.00 0.01 0.01 0.02 0.02 0.03 0.03 0.04 0.05 0.05 0.05 0.06 0.07 0.07 0.08 0.09 0.09 0.09 0.08 0.07 0.06 0.06 0.12
0.00 0.00 0.00 0.00 0.00 0.00 0.00 0.00 0.00 0.00 0.00 0.00 0.00 0.00 0.00 0.00 0.00 0.00 0.00 0.00 0.01 0.02 0.03 0.04 0.03 0.03 0.03 0.05 0.08 0.11 0.11 0.10 0.10 0.10 0.09 0.08 0.08 0.07 0.07 0.07 0.06 0.06 0.08 0.15
0.00 0.00 0.00 0.00 0.00 0.00 0.00 0.00 0.00 0.00 0.00 0.00 0.00 0.00 0.00 0.00 0.00 0.00 0.01 0.02 0.04 0.07 0.08 0.07 0.05 0.04 0.04 0.07 0.12 0.16 0.15 0.13 0.11 0.11 0.10 0.10 0.09 0.07 0.04 0.02 0.02 0.02 0.03 0.08
0.00 0.00 0.00 0.00 0.00 0.00 0.00 0.00 0.00 0.00 0.00 0.00 0.00 0.00 0.00 0.00 0.00 0.01 0.02 0.07 0.14 0.17 0.13 0.09 0.07 0.06 0.06 0.09 0.12 0.13 0.13 0.12 0.11 0.10 0.08 0.07 0.08 0.08 0.08 0.06 0.02 0.01 0.01 0.02
0.00 0.00 0.00 0.00 0.00 0.00 0.00 0.00 0.00 0.00 0.00 0.00 0.00 0.00 0.00 0.00 0.01 0.03 0.08 0.19 0.26 0.20 0.11 0.08 0.06 0.06 0.07 0.10 0.11 0.12 0.12 0.12 0.12 0.11 0.10 0.07 0.05 0.06 0.07 0.09 0.08 0.06 0.03 0.02
0.00 0.00 0.00 0.00 0.00 0.00 0.00 0.00 0.00 0.00 0.00 0.00 0.00 0.00 0.00 0.01 0.02 0.06 0.16 0.28 0.24 0.13 0.07 0.05 0.05 0.06 0.08 0.09 0.12 0.14 0.13 0.11 0.10 0.09 0.08 0.06 0.06 0.07 0.08 0.06 0.07 0.14 0.11 0.03
0.00 0.00 0.00 0.00 0.00 0.00 0.00 0.00 0.00 0.00 0.00 0.00 0.00 0.00 0.00 0.01 0.04 0.09 0.17 0.22 0.19 0.12 0.07 0.05 0.06 0.08 0.09 0.10 0.13 0.12 0.10 0.08 0.06 0.04 0.04 0.04 0.06 0.09 0.07 0.05 0.07 0.15 0.13 0.05
0.00 0.00 0.00 0.00 0.00 0.00 0.00 0.00 0.00 0.00 0.00 0.00 0.00 0.00 0.00 0.02 0.06 0.13 0.16 0.14 0.12 0.08 0.05 0.04 0.06 0.08 0.09 0.11 0.12 0.10 0.07 0.05 0.04 0.03 0.03 0.06 0.08 0.07 0.05 0.06 0.09 0.15 0.14 0.07
0.00 0.00 0.00 0.00 0.00 0.00 0.00 0.00 0.00 0.00 0.00 0.00 0.00 0.00 0.01 0.03 0.10 0.20 0.18 0.13 0.09 0.05 0.03 0.02 0.04 0.06 0.09 0.09 0.08 0.08 0.06 0.04 0.05 0.06 0.09 0.11 0.10 0.08 0.09 0.11 0.10 0.12 0.10 0.04
0.00 0.00 0.00 0.00 0.00 0.00 0.00 0.00 0.00 0.00 0.00 0.00 0.00 0.00 0.01 0.03 0.09 0.17 0.15 0.14 0.12 0.06 0.03 0.01 0.02 0.05 0.09 0.05 0.04 0.07 0.09 0.08 0.07 0.11 0.13 0.10 0.11 0.12 0.11 0.09 0.08 0.07 0.06 0.04
0.00 0.00 0.00 0.00 0.00 0.00 0.00 0.00 0.00 0.00 0.00 0.00 0.00 0.00 0.00 0.02 0.07 0.15 0.14 0.13 0.13 0.08 0.05 0.01 0.01 0.04 0.05 0.03 0.02 0.04 0.04 0.05 0.05 0.05 0.06 0.06 0.08 0.07 0.05 0.05 0.05 0.04 0.04 0.03
0.00 0.00 0.00 0.00 0.00 0.00 0.00 0.00 0.00 0.00 0.00 0.00 0.00 0.00 0.00 0.01 0.04 0.12 0.19 0.16 0.11 0.08 0.05 0.03 0.01 0.02 0.02 0.01 0.01 0.03 0.03 0.02 0.01 0.01 0.02 0.03 0.05 0.06 0.06 0.07 0.07 0.04 0.02 0.01
0.00 0.00 0.00 0.00 0.00 0.00 0.00 0.00 0.00 0.00 0.00 0.00 0.00 0.00 0.00 0.02 0.03 0.05 0.14 0.18 0.14 0.14 0.07 0.04 0.01 0.00 0.00 0.01 0.02 0.04 0.04 0.05 0.06 0.06 0.06 0.06 0.08 0.10 0.11 0.10 0.07 0.04 0.01 0.01
0.00 0.00 0.00 0.00 0.00 0.00 0.00 0.00 0.00 0.00 0.00 0.00 0.00 0.00 0.01 0.01 0.03 0.05 0.07 0.10 0.12 0.15 0.10 0.05 0.03 0.01 0.00 0.01 0.03 0.04 0.03 0.04 0.06 0.07 0.07 0.07 0.08 0.09 0.08 0.07 0.07 0.03 0.01 0.03
0.00 0.00 0.00 0.00 0.00 0.00 0.00 0.00 0.00 0.00 0.00 0.00 0.00 0.00 0.00 0.01 0.01 0.02 0.02 0.03 0.05 0.08 0.08 0.09 0.07 0.05 0.03 0.03 0.03 0.04 0.03 0.04 0.05 0.05 0.04 0.04 0.05 0.08 0.12 0.13 0.11 0.06 0.03 0.02
0.00 0.00 0.00 0.00 0.00 0.00 0.00 0.00 0.00 0.00 0.00 0.00 0.00 0.00 0.00 0.00 0.01 0.01 0.00 0.00 0.01 0.01 0.02 0.04 0.04 0.05 0.06 0.06 0.05 0.04 0.03 0.03 0.04 0.06 0.08 0.11 0.15 0.20 0.23 0.18 0.10 0.06 0.04 0.02
0.00 0.00 0.00 0.00 0.00 0.00 0.00 0.00 0.00 0.00 0.00 0.00 0.00 0.00 0.00 0.00 0.00 0.00 0.00 0.00 0.00 0.00 0.01 0.01 0.01 0.01 0.02 0.04 0.07 0.08 0.06 0.05 0.05 0.07 0.10 0.15 0.22 0.26 0.19 0.11 0.05 0.03 0.03 0.03
0.00 0.00 0.00 0.00 0.00 0.00 0.00 0.00 0.00 0.00 0.00 0.00 0.00 0.00 0.00 0.00 0.00 0.00 0.00 0.00 0.00 0.00 0.00 0.00 0.00 0.00 0.00 0.01 0.02 0.04 0.06 0.06 0.08 0.09 0.10 0.13 0.16 0.14 0.08 0.04 0.03 0.02 0.02 0.02
MSLP
1010.72 1010.57 1010.51 1010.58 1010.80 1011.18 1011.67 1012.22 1012.76 1013.24 1013.60 1013.81 1013.86 1013.77 1013.56 1013.26 1012.92 1012.56 1012.19 1011.82 1011.48 1011.14 1010.83 1010.53 1010.27 1010.04 1009.85 1009.70 1009.58 1009.49 1009.39 1009.27 1009.11 1008.91 1008.65 1008.35 1008.03 1007.71 1007.41 1007.15 1006.94 1006.78 1006.65 1006.55
1011.52 1011.46 1011.45 1011.52 1011.69 1011.98 1012.36 1012.78 1013.20 1013.57 1013.83 1013.97 1013.96 1013.82 1013.55 1013.20 1012.79 1012.35 1011.89 1011.44 1011.01 1010.61 1010.23 1009.89 1009.59 1009.33 1009.11 1008.94 1008.79 1008.66 1008.53 1008.38 1008.19 1007.97 1007.71 1007.43 1007.14 1006.86 1006.60 1006.39 1006.23 1006.10 1006.02 1005.96
1012.29 1012.33 1012.38 1012.47 1012.62 1012.83 1013.09 1013.38 1013.66 1013.88 1014.02 1014.04 1013.93 1013.69 1013.35 1012.92 1012.42 1011.90 1011.36 1010.84 1010.34 1009.88 1009.46 1009.09 1008.77 1008.50 1008.27 1008.08 1007.92 1007.77 1007.61 1007.44 1007.24 1007.02 1006.77 1006.50 1006.24 1005.99 1005.77 1005.60 1005.47 1005.38 1005.33 1005.30
1012.99 1013.13 1013.24 1013.35 1013.48 1013.62 1013.78 1013.93 1014.05 1014.11 1014.09 1013.96 1013.72 1013.37 1012.93 1012.40 1011.83 1011.23 1010.63 1010.05 1009.51 1009.02 1008.58 1008.20 1007.88 1007.61 1007.39 1007.21 1007.05 1006.89 1006.73 1006.56 1006.36 1006.13 1005.89 1005.64 1005.39 1005.16 1004.97 1004.81 1004.71 1004.64 1004.61 1004.61
1013.61 1013.82 1013.98 1014.11 1014.20 1014.28 1014.32 1014.34 1014.30 1014.20 1014.01 1013.73 1013.35 1012.88 1012.33 1011.73 1011.09 1010.43 1009.79 1009.18 1008.62 1008.12 1007.69 1007.32 1007.02 1006.78 1006.58 1006.41 1006.27 1006.12 1005.97 1005.79 1005.59 1005.37 1005.13 1004.88 1004.64 1004.42 1004.23 1004.08 1003.98 1003.93 1003.92 1003.94
1014.15 1014.40 1014.58 1014.70 1014.76 1014.76 1014.70 1014.58 1014.39 1014.13 1013.79 1013.37 1012.86 1012.29 1011.66 1010.99 1010.30 1009.62 1008.97 1008.36 1007.81 1007.32 1006.91 1006.57 1006.30 1006.08 1005.91 1005.76 1005.63 1005.50 1005.35 1005.17 1004.97 1004.75 1004.50 1004.24 1003.99 1003.76 1003.57 1003.41 1003.31 1003.26 1003.26 1003.31
1014.61 1014.86 1015.03 1015.12 1015.12 1015.04 1014.87 1014.63 1014.31 1013.91 1013.44 1012.91 1012.31 1011.66 1010.98 1010.29 1009.59 1008.91 1008.27 1007.68 1007.16 1006.70 1006.32 1006.01 1005.76 1005.56 1005.40 1005.27 1005.15 1005.01 1004.86 1004.68 1004.46 1004.22 1003.96 1003.68 1003.41 1003.17 1002.96 1002.80 1002.69 1002.65 1002.67 1002.74
1014.99 1015.21 1015.33 1015.37 1015.30 1015.13 1014.86 1014.51 1014.08 1013.58 1013.02 1012.41 1011.75 1011.08 1010.38 1009.70 1009.02 1008.38 1007.77 1007.22 1006.73 1006.30 1005.94 1005.64 1005.40 1005.21 1005.05 1004.90 1004.76 1004.61 1004.44 1004.23 1003.99 1003.72 1003.43 1003.14 1002.85 1002.58 1002.36 1002.20 1002.10 1002.08 1002.12 1002.23
1015.26 1015.42 1015.49 1015.45 1015.30 1015.05 1014.70 1014.26 1013.74 1013.17 1012.55 1011.90 1011.24 1010.57 1009.90 1009.25 1008.63 1008.03 1007.47 1006.96 1006.50 1006.09 1005.73 1005.43 1005.17 1004.95 1004.75 1004.58 1004.40 1004.21 1003.99 1003.75 1003.47 1003.17 1002.85 1002.53 1002.23 1001.96 1001.74 1001.59 1001.51 1001.52 1001.61 1001.78
1015.40 1015.50 1015.50 1015.39 1015.17 1014.83 1014.41 1013.90 1013.33 1012.72 1012.08 1011.43 1010.79 1010.16 1009.55 1008.96 1008.39 1007.85 1007.34 1006.86 1006.41 1005.99 1005.61 1005.27 1004.96 1004.68 1004.43 1004.19 1003.95 1003.70 1003.43 1003.14 1002.82 1002.49 1002.15 1001.82 1001.51 1001.25 1001.05 1000.93 1000.90 1000.97 1001.13 1001.36
1015.41 1015.45 1015.38 1015.20 1014.91 1014.52 1014.04 1013.49 1012.89 1012.27 1011.64 1011.03 1010.43 1009.85 1009.31 1008.79 1008.28 1007.79 1007.31 1006.84 1006.37 1005.92 1005.49 1005.08 1004.69 1004.33 1003.98 1003.66 1003.34 1003.02 1002.70 1002.36 1002.01 1001.66 1001.31 1000.98 1000.69 1000.46 1000.30 1000.24 1000.27 1000.41 1000.64 1000.95
1015.28 1015.27 1015.15 1014.93 1014.59 1014.16 1013.65 1013.08 1012.48 1011.87 1011.27 1010.69 1010.15 1009.65 1009.16 1008.70 1008.24 1007.78 1007.31 1006.82 1006.32 1005.80 1005.29 1004.78 1004.29 1003.82 1003.38 1002.96 1002.56 1002.17 1001.79 1001.42 1001.05 1000.69 1000.36 1000.05 999.80 999.62 999.53 999.53 999.64 999.86 1000.17 1000.55
1015.03 1015.00 1014.86 1014.61 1014.25 1013.80 1013.28 1012.71 1012.12 1011.54 1010.98 1010.46 1009.98 1009.53 1009.10 1008.68 1008.25 1007.79 1007.31 1006.78 1006.21 1005.61 1004.99 1004.38 1003.77 1003.19 1002.64 1002.13 1001.66 1001.21 1000.80 1000.41 1000.04 999.70 999.39 999.13 998.94 998.82 998.80 998.88 999.07 999.36 999.74 1000.18
1014.72 1014.69 1014.55 1014.30 1013.94 1013.49 1012.98 1012.43 1011.87 1011.33 1010.81 1010.34 1009.91 1009.51 1009.12 1008.72 1008.29 1007.82 1007.29 1006.70 1006.05 1005.36 1004.63 1003.90 1003.19 1002.50 1001.86 1001.27 1000.74 1000.26 999.83 999.44 999.09 998.79 998.53 998.33 998.20 998.16 998.21 998.36 998.61 998.96 999.39 999.88
1014.39 1014.38 1014.25 1014.02 1013.68 1013.26 1012.77 1012.26 1011.74 1011.23 1010.77 1010.34 1009.95 1009.58 1009.21 1008.82 1008.38 1007.87 1007.29 1006.63 1005.89 1005.10 1004.27 1003.44 1002.62 1001.85 1001.13 1000.49 999.92 999.43 999.00 998.64 998.33 998.07 997.87 997.74 997.68 997.70 997.81 998.02 998.32 998.71 999.17 999.67
1014.08 1014.10 1014.00 1013.80 1013.50 1013.12 1012.67 1012.20 1011.72 1011.26 1010.84 1010.44 1010.08 1009.73 1009.37 1008.97 1008.51 1007.97 1007.33 1006.59 1005.77 1004.89 1003.97 1003.05 1002.16 1001.32 1000.56 999.89 999.31 998.83 998.42 998.09 997.83 997.63 997.49 997.41 997.41 997.48 997.64 997.89 998.22 998.62 999.08 999.57
1013.82 1013.87 1013.82 1013.66 1013.40 1013.06 1012.66 1012.23 1011.80 1011.38 1010.99 1010.63 1010.29 1009.95 1009.59 1009.17 1008.68 1008.09 1007.40 1006.60 1005.72 1004.76 1003.78 1002.80 1001.86 1000.98 1000.20 999.52 998.95 998.48 998.12 997.83 997.62 997.47 997.38 997.35 997.39 997.50 997.68 997.94 998.27 998.67 999.11 999.58
1013.61 1013.69 1013.68 1013.56 1013.35 1013.06 1012.70 1012.32 1011.93 1011.55 1011.19 1010.85 1010.53 1010.19 1009.82 1009.39 1008.87 1008.24 1007.50 1006.66 1005.72 1004.72 1003.70 1002.68 1001.71 1000.82 1000.04 999.37 998.82 998.38 998.05 997.81 997.64 997.53 997.48 997.48 997.54 997.67 997.85 998.11 998.43 998.81 999.22 999.66
1013.42 1013.54 1013.56 1013.49 1013.32 1013.07 1012.76 1012.41 1012.06 1011.71 1011.38 1011.06 1010.75 1010.41 1010.03 1009.58 1009.04 1008.38 1007.61 1006.73 1005.76 1004.74 1003.69 1002.66 1001.69 1000.80 1000.02 999.38 998.85 998.45 998.14 997.93 997.79 997.71 997.68 997.70 997.77 997.88 998.06 998.30 998.59 998.94 999.32 999.72
1013.25 1013.39 1013.44 1013.40 1013.27 1013.05 1012.78 1012.47 1012.15 1011.83 1011.52 1011.22 1010.91 1010.58 1010.19 1009.72 1009.16 1008.48 1007.69 1006.79 1005.80 1004.76 1003.71 1002.68 1001.71 1000.84 1000.08 999.45 998.94 998.56 998.28 998.08 997.96 997.89 997.86 997.87 997.93 998.03 998.19 998.40 998.66 998.98 999.33 999.70
1013.05 1013.22 1013.29 1013.28 1013.17 1012.98 1012.74 1012.46 1012.17 1011.88 1011.59 1011.30 1011.00 1010.67 1010.28 1009.80 1009.22 1008.53 1007.73 1006.82 1005.82 1004.78 1003.73 1002.70 1001.74 1000.88 1000.13 999.50 999.01 998.63 998.36 998.16 998.04 997.96 997.92 997.92 997.96 998.04 998.17 998.35 998.58 998.87 999.20 999.55
1012.82 1013.00 1013.10 1013.10 1013.02 1012.86 1012.64 1012.39 1012.13 1011.86 1011.60 1011.33 1011.04 1010.71 1010.32 1009.84 1009.26 1008.56 1007.75 1006.83 1005.84 1004.79 1003.74 1002.72 1001.76 1000.90 1000.15 999.52 999.02 998.64 998.35 998.14 997.99 997.90 997.84 997.82 997.83 997.88 997.98 998.13 998.34 998.61 998.92 999.26
1012.55 1012.75 1012.86 1012.88 1012.81 1012.68 1012.49 1012.27 1012.04 1011.80 1011.57 1011.32 1011.05 1010.74 1010.36 1009.89 1009.31 1008.61 1007.80 1006.89 1005.89 1004.85 1003.80 1002.77 1001.80 1000.93 1000.17 999.53 999.00 998.59 998.28 998.04 997.87 997.74 997.65 997.60 997.58 997.60 997.68 997.81 997.99 998.24 998.53 998.86
1012.25 1012.46 1012.58 1012.62 1012.57 1012.46 1012.31 1012.13 1011.93 1011.73 1011.54 1011.33 1011.09 1010.81 1010.45 1010.00 1009.44 1008.75 1007.96 1007.05 1006.06 1005.01 1003.96 1002.93 1001.95 1001.06 1000.27 999.60 999.04 998.59 998.23 997.96 997.74 997.57 997.45 997.36 997.32 997.31 997.36 997.46 997.63 997.85 998.13 998.45
1011.92 1012.15 1012.28 1012.34 1012.31 1012.23 1012.11 1011.98 1011.83 1011.69 1011.54 1011.38 1011.20 1010.96 1010.64 1010.23 1009.70 1009.04 1008.26 1007.38 1006.40 1005.36 1004.31 1003.27 1002.28 1001.37 1000.55 999.84 999.24 998.74 998.34 998.01 997.75 997.54 997.37 997.25 997.17 997.14 997.16 997.24 997.38 997.58 997.84 998.15
1011.57 1011.81 1011.96 1012.04 1012.04 1012.00 1011.93 1011.84 1011.76 1011.68 1011.60 1011.51 1011.39 1011.22 1010.96 1010.60 1010.11 1009.50 1008.77 1007.91 1006.96 1005.95 1004.91 1003.88 1002.88 1001.95 1001.10 1000.36 999.72 999.17 998.72 998.34 998.03 997.77 997.56 997.39 997.28 997.21 997.20 997.24 997.35 997.53 997.76 998.05
1011.19 1011.45 1011.63 1011.73 1011.77 1011.77 1011.75 1011.73 1011.72 1011.72 1011.72 1011.71 1011.67 1011.57 1011.38 1011.09 1010.67 1010.13 1009.45 1008.65 1007.75 1006.78 1005.77 1004.76 1003.78 1002.84 1001.99 1001.22 1000.54 999.96 999.45 999.03 998.66 998.35 998.10 997.89 997.73 997.62 997.57 997.58 997.66 997.80 998.00 998.25
Thickness
5760 5771 5771 5758 5752 5746 5733 5717 5705 5700 5696 5690 5677 5668 5664 5661 5656 5649 5643 5638 5631 5623 5615 5608 5602 5596 5590 5586 5584 5582 5580 5579 5578 5580 5581 5583 5586 5589 5592 5595 5600 5606 5613 5618
5748 5763 5757 5740 5733 5728 5719 5708 5699 5692 5688 5686 5673 5663 5657 5652 5644 5636 5631 5627 5617 5605 5595 5586 5578 5571 5565 5561 5560 5558 5557 5557 5558 5560 5562 5565 5567 5570 5574 5579 5585 5591 5596 5602
5733 5756 5754 5715 5708 5705 5700 5696 5687 5677 5678 5675 5660 5650 5645 5638 5630 5624 5614 5601 5590 5581 5573 5566 5560 5555 5552 5551 5549 5547 5546 5546 5545 5546 5548 5551 5555 5558 5560 5563 5567 5572 5579 5585
5736 5739 5709 5698 5712 5704 5693 5690 5686 5676 5664 5655 5647 5642 5634 5625 5615 5600 5588 5578 5571 5566 5562 5558 5555 5552 5549 5546 5544 5542 5541 5539 5538 5538 5540 5543 5546 5549 5553 5555 5557 5559 5562 5567
5726 5717 5709 5699 5702 5692 5679 5673 5668 5656 5648 5642 5634 5625 5621 5612 5596 5582 5574 5568 5563 5559 5556 5553 5550 5547 5545 5542 5538 5535 5533 5531 5530 5530 5532 5534 5537 5541 5544 5548 5551 5552 5552 5554
5717 5698 5690 5683 5692 5692 5678 5669 5658 5647 5637 5629 5620 5607 5606 5598 5584 5575 5567 5562 5558 5556 5553 5550 5547 5543 5539 5535 5531 5528 5525 5523 5522 5521 5522 5525 5529 5532 5535 5539 5543 5546 5549 5550
5703 5692 5687 5688 5690 5681 5653 5645 5651 5643 5631 5619 5605 5593 5590 5586 5577 5569 5564 5560 5556 5552 5547 5543 5539 5535 5530 5526 5521 5519 5516 5513 5512 5511 5512 5516 5520 5524 5527 5530 5535 5539 5542 5544
5692 5681 5675 5688 5677 5656 5645 5649 5641 5631 5622 5611 5601 5592 5582 5573 5568 5564 5560 5556 5550 5544 5539 5534 5528 5522 5517 5511 5507 5503 5501 5500 5500 5500 5501 5507 5512 5517 5520 5523 5526 5530 5533 5536
5685 5679 5686 5680 5667 5660 5652 5640 5632 5624 5615 5604 5593 5583 5575 5569 5565 5561 5555 5548 5541 5533 5526 5519 5511 5503 5496 5493 5487 5485 5485 5486 5488 5489 5491 5494 5500 5506 5510 5514 5517 5522 5527 5532
5685 5685 5682 5672 5664 5656 5647 5636 5628 5617 5607 5595 5583 5575 5569 5566 5561 5554 5547 5537 5528 5518 5509 5501 5493 5484 5477 5473 5469 5468 5470 5473 5476 5478 5482 5486 5490 5494 5499 5504 5509 5513 5517 5524
5677 5677 5669 5665 5656 5648 5642 5633 5622 5611 5598 5586 5576 5570 5565 5560 5554 5544 5533 5522 5509 5497 5488 5481 5474 5468 5463 5460 5457 5457 5459 5462 5465 5470 5474 5479 5482 5486 5490 5496 5500 5502 5507 5513
5665 5665 5656 5652 5650 5644 5635 5625 5616 5605 5596 5585 5573 5567 5561 5553 5543 5531 5520 5507 5493 5481 5471 5465 5460 5457 5454 5452 5451 5450 5452 5457 5461 5465 5468 5471 5474 5478 5483 5487 5492 5495 5498 5503
5674 5668 5659 5652 5648 5640 5630 5621 5611 5600 5590 5580 5573 5565 5556 5546 5535 5523 5510 5496 5482 5471 5462 5457 5453 5451 5451 5451 5450 5449 5451 5455 5457 5459 5461 5463 5465 5469 5476 5481 5485 5491 5494 5498
5671 5661 5650 5647 5641 5635 5625 5617 5608 5598 5587 5576 5570 5562 5551 5539 5528 5516 5503 5489 5477 5469 5463 5458 5455 5453 5453 5452 5451 5452 5453 5454 5454 5455 5456 5457 5460 5466 5473 5481 5488 5495 5493 5493
5665 5656 5648 5645 5638 5630 5622 5614 5604 5595 5586 5576 5568 5558 5546 5535 5525 5513 5501 5490 5481 5474 5470 5465 5462 5461 5459 5457 5455 5455 5454 5453 5452 5452 5453 5455 5458 5464 5473 5481 5489 5495 5496 5491
5662 5655 5648 5640 5632 5625 5617 5609 5599 5592 5583 5574 5566 5555 5544 5534 5523 5514 5506 5497 5489 5482 5479 5475 5472 5470 5467 5465 5463 5460 5457 5454 5452 5452 5454 5458 5463 5469 5478 5486 5492 5495 5497 5495
5655 5646 5640 5632 5626 5619 5612 5604 5596 5587 5579 5571 5563 5554 5546 5536 5527 5521 5515 5507 5499 5493 5488 5483 5480 5477 5476 5475 5472 5468 5465 5462 5460 5461 5464 5468 5473 5480 5488 5494 5497 5499 5500 5499
5655 5646 5637 5628 5621 5615 5609 5602 5594 5585 5575 5567 5561 5555 5548 5538 5529 5525 5522 5518 5513 5508 5501 5493 5488 5484 5486 5486 5483 5481 5480 5480 5479 5479 5480 5482 5486 5493 5498 5502 5507 5508 5505 5500
5653 5646 5637 5628 5620 5613 5605 5599 5592 5584 5574 5565 5560 5555 5548 5540 5533 5529 5528 5527 5524 5519 5513 5507 5499 5498 5497 5496 5493 5494 5494 5494 5494 5495 5496 5497 5499 5505 5509 5513 5515 5515 5513 5511
5650 5643 5634 5626 5618 5610 5602 5597 5591 5583 5573 5563 5558 5555 5550 5544 5538 5535 5534 5534 5530 5525 5522 5519 5516 5515 5512 5508 5504 5506 5507 5508 5508 5509 5510 5512 5513 5515 5518 5519 5520 5520 5521 5523
5646 5637 5629 5623 5615 5608 5601 5594 5589 5581 5572 5562 5557 5554 5550 5546 5542 5539 5539 5540 5538 5536 5535 5536 5535 5532 5528 5520 5517 5519 5519 5518 5518 5518 5518 5519 5521 5522 5523 5523 5524 5527 5529 5532
5640 5632 5625 5618 5611 5604 5599 5593 5587 5579 5571 5563 5558 5554 5552 5548 5546 5544 5544 5541 5541 5542 5545 5550 5550 5545 5539 5534 5536 5536 5534 5531 5529 5528 5528 5528 5529 5529 5529 5530 5532 5535 5539 5543
5636 5628 5620 5614 5608 5602 5598 5591 5585 5577 5569 5563 5557 5553 5550 5546 5542 5541 5544 5545 5546 5548 5554 5560 5558 5556 5553 5555 5557 5556 5554 5550 5548 5546 5545 5545 5544 5543 5543 5544 5546 5550 5553 5555
5630 5624 5617 5612 5606 5602 5595 5589 5583 5575 5568 5562 5557 5552 5549 5547 5545 5543 5542 5547 5551 5554 5563 5566 5567 5569 5569 5572 5573 5573 5571 5569 5568 5566 5565 5564 5564 5563 5563 5564 5565 5566 5568 5569
5626 5619 5614 5608 5603 5599 5593 5587 5581 5573 5567 5561 5555 5550 5548 5545 5542 5542 5544 5549 5553 5558 5567 5572 5573 5574 5579 5581 5582 5583 5583 5581 5580 5579 5579 5580 5579 5580 5579 5580 5580 5581 5582 5583
5622 5617 5614 5605 5601 5596 5590 5582 5575 5568 5563 5557 5552 5547 5544 5541 5540 5540 5543 5547 5552 5556 5563 5568 5573 5576 5578 5580 5584 5586 5587 5589 5591 5590 5590 5590 5588 5588 5590 5591 5592 5592 5592 5592
5621 5617 5612 5606 5601 5591 5583 5576 5568 5562 5557 5549 5546 5542 5538 5534 5533 5535 5539 5543 5547 5552 5556 5560 5564 5569 5572 5574 5579 5582 5584 5587 5590 5596 5598 5599 5598 5595 5596 5597 5598 5598 5597 5597